Location: Unspecified
(0.0000°N, 0.0000°E)
Time: 11:23:10
(UTC+00:00)

A-11 Canister half - Pass Details

Date: 03 August 2021
Orbit: 1515 x 1685 km, 47.2° (Epoch: 27 September)

Event Time Altitude Azimuth Distance (km) Brightness Sun altitude
Rises 00:54:19 0° 325° (NW) 4,924 - -68.9°
Reaches altitude 10° 00:57:31 10° 328° (NNW) 3,931 - -68.4°
Maximum altitude 01:07:35 71° 51° (NE) 1,726 - -66.9°
Drops below altitude 10° 01:17:23 10° 133° (SE) 3,837 - -65.3°
Sets 01:20:28 0° 135° (SE) 4,802 - -64.7°
